Volver al catálogo

STARLINK-2621

ActivoComunicacionesVLEO
NORAD 48370·PAYLOAD·🇺🇸 United States

Lanzado May 4, 2021 desde Cape Canaveral Space Force Station

Loading…

Próximos Pases (próximas 24 horas)

TLE

ActualizadoSource: CelesTrak SupGP

Época: Sep 14, 2026, 20:10 UTC

1 48370C 21038T   26257.84076389  .00011407  00000+0  36683-3 0  2571
2 48370  53.1571 187.4950 0001481  96.0640 308.8630 15.31694860    11

Sigue STARLINK-2621 en tiempo real con AllMySat

Download on the App Store